Voltar ao catálogo

STARLINK-37961

AtivoComunicaçõesSSO
NORAD 69691·PAYLOAD·🇺🇸 United States

Lançado Jun 25, 2026 de Vandenberg Space Force Base

Loading…

Próximas Passagens (próximas 24 horas)

TLE

AtualizadoSource: CelesTrak SupGP

Época: Sep 15, 2026, 02:55 UTC

1 69691C 26145Q   26258.12201389 -.00018326  00000+0 -56879-3 0  2585
2 69691  97.2846 104.8865 0001875  92.4983 156.9704 15.33452024    19

Acompanhe STARLINK-37961 em tempo real com AllMySat

Download on the App Store